CZ-6A DEB, 54332

Orbit data source: Space-Track

CZ-6A DEB, 54332 is space debris in SSO originally from a launch on Fri, 11 Nov 2022 UTC launched from the Taiyaun Space Center, China (TSC). Debris objects in space refer to the collection of defunct objects orbiting the Earth. Examples of debris include non-operational satellites, rocket bodies, and fragments generated from explosions, collisions, or faulty payload assembly.

Loading next visibility...
Identifier
54332, 2022-151CB
Orbit
SSO
Country
Flag of CNCN / PRC
Related business
Manufacturer
SAST
Mission
Spacecraft
Bus & Motor
Unknown
Mass
Unknown
Launch date (UTC)
2022-11-11 (4 years ago)
Launch vehicle
Unknown
Launch site
Taiyaun Space Center, China (TSC)
Object type
Payload
Rocket body
Debris
Shape & HBR
Unknown shape, 0.1 m
Radar Cross Section
Medium (>0.1 m² and <1 m²)

Expand to show TLE details & history
Last TLE update: 3 days ago

TLE from 3 days ago
0 CZ-6A DEB
1 54332U 22151CB  26170.01097386  .00001029  00000-0  45570-3 0  9994
2 54332  98.7664 189.0472 0037395 330.9940  28.9160 14.24983268186171
Epoch: 2026-06-19T00:15Z
TLE epoch observation values (Epoch: 2026-06-19T00:15:48.141Z)
Latitude
-0.00011°
Longitude
-82.14945°
Altitude
787.963 km
Speed
7.472 km/s
True Right ascension
12h 36m 11s
True Declination
0° 00' 00"
Sunlit
Object was in daylight at epoch
Visualization orbit readout
Latitude
Unknown
Longitude
Unknown
Altitude
Unknown
Speed
Unknown
Apparent Right ascension
Unknown
Apparent Declination
Unknown
Sunlit
N/A
Visualization observer readout
Local Sidereal Time
21:30:51
Azimuth
Unknown
Elevation
Unknown
Doppler factor
Unknown
Orbital elements
Apogee altitude
832.567 km
Perigee altitude
778.84 km
Semi-major axis
7,183.841 km
Eccentricity
0.00374
Inclination
98.7664°
RAAN
189.0472°
Arg. of periapsis
330.994°
True anomaly
29.12405°
Mean anomaly
28.916°
Eccentric anomaly
29.01994°
Mean motion
3.56458 °/min
Orbital period
100.99 mins
BSTAR
0.0004557
Loading maneuver chart data...
Computing Atmospheric mass density...
Loading historical data...
Loading historical data...
Loading historical data...
Loading historical data...
Loading historical data...
Loading historical data...
Loading historical data...

Documentation

Showing up to 5 results
|